STARLINK-37569, 69836

Orbit data source: Space-Track

STARLINK-37569, 69836 is a payload satellite owned by SpaceX/Seattle (US) in LEO that was launched on Sun, 05 Jul 2026 UTC via an FALCON 9 launch vehicle from the Air Force Eastern Test Range (AFETR). Payload-class satellites include a variety of spacecraft equipped with specific instruments for various scientific and technological missions. These include communications satellites like Starlink; space stations such as the ISS; scientific satellites like the Hubble; Earth observation satellites from companies like Planet Labs, Umbra, and HawkEye 360; GPS; miniature CubeSats for education and research; and military/defense satellites.

Loading next visibility...
Identifier
69836, 2026-154T
Orbit
LEO
Country
Flag of USUS
Related business
Manufacturer
SpaceX/Seattle
Mission
Operational spacecraft
Bus & Motor
STARLINK V2MO, Unknown motor
Mass
575 kg wet, ~530 kg dry
Launch date (UTC)
2026-07-05 (2 months ago)
Launch vehicle
FALCON 9
Launch site
Air Force Eastern Test Range (AFETR)
Object type
Payload
Rocket body
Debris
Shape & HBR
BOX + PAN, 17.7 m
Radar Cross Section
Large (>1 m²)

Expand to show TLE details & history
Last TLE update: 23 hours ago

TLE from 23 hours ago
0 STARLINK-37569
1 69836U 26154T   26235.96442040  .00030571  00000-0  91169-3 0  9992
2 69836  53.1602 100.2374 0001050  83.8374 276.2749 15.34419523  9011
Epoch: 2026-08-23T23:08Z
TLE epoch observation values (Epoch: 2026-08-23T23:08:45.922Z)
Latitude
0.00004°
Longitude
140.79316°
Altitude
463.468 km
Speed
7.636 km/s
True Right ascension
06h 40m 56s
True Declination
0° 00' 00"
Sunlit
Object was in daylight at epoch
Visualization orbit readout
Latitude
Unknown
Longitude
Unknown
Altitude
Unknown
Speed
Unknown
Apparent Right ascension
Unknown
Apparent Declination
Unknown
Sunlit
N/A
Visualization observer readout
Local Sidereal Time
13:47:12
Azimuth
Unknown
Elevation
Unknown
Doppler factor
Unknown
Orbital elements
Apogee altitude
463.62 km
Perigee altitude
462.184 km
Semi-major axis
6,841.039 km
Eccentricity
0.00011
Inclination
53.1602°
RAAN
100.2374°
Arg. of periapsis
83.8374°
True anomaly
276.26294°
Mean anomaly
276.2749°
Eccentric anomaly
276.26892°
Mean motion
3.83584 °/min
Orbital period
93.85 mins
BSTAR
0.00091169
Loading maneuver chart data...
Computing Atmospheric mass density...
Loading historical data...
Loading historical data...
Loading historical data...
Loading historical data...
Loading historical data...
Loading historical data...
Loading historical data...

Documentation

Showing up to 5 results
|